Skip Page Navigation
NASA JPL Caltech
NASA Logo - Jet Propulsion Laboratory + View the NASA Portal
+ Near-Earth Object (NEO) Program
Search JPL
JPL Home Earth Solar System Stars & Galaxies Technology
JPL Solar System Dynamics
BODIES ORBITS EPHEMERIDES TOOLS PHYSICAL DATA DISCOVERY FAQ SITE MAP
JPL Small-Body Database Browser
Search: [ help ]  
10131 Stanga (1993 FP73)
Classification: Main-belt Asteroid          SPK-ID: 2010131
Ephemeris | Orbit Diagram | Orbital Elements | Physical Parameters | Discovery Circumstances ]

[ show orbit diagram ]
Orbital Elements at Epoch 2456400.5 (2013-Apr-18.0) TDB
Reference: MPO250311 (heliocentric ecliptic J2000)
 Element Value Uncertainty (1-sigma)   Units 
e 0.1769903 n/a  
a 2.3017569 n/a AU
q 1.8943683 n/a AU
i 2.78150 n/a deg
node 222.43614 n/a deg
peri 134.22644 n/a deg
M 107.73392 n/a deg
tp 2456018.7864637
(2012-Apr-01.28646370)
n/a JED
period 1275.5209600
3.49
n/a
n/a
d
yr
n 0.28223762 n/a deg/d
Q 2.7091455 n/a AU
  Orbit Determination Parameters
   # obs. used (total)      402  
   first obs. used      1993-??-??  
   last obs. used      2013-01-18  
   # oppositions      14  
   planetary ephem.      DE403  
   condition code      0  
   fit RMS      0.59  
   data source      MPC:mpn  
   producer      MPCLINUX  

Additional Information
 T_jup = 3.568 

Ephemeris | Orbit Diagram | Orbital Elements | Physical Parameters | Discovery Circumstances ]

Physical Parameter Table
Parameter Symbol Value Units Sigma Reference Notes
absolute magnitude H 15.5 mag n/a PDS3 (MPC 33888)  

10131 Stånga           Discovered 1993 Mar. 21 at the European Southern Observatory in the course of the Uppsala-ESO Survey of Asteroids and Comets.
Stånga has hosted annual games typical of Gotland every summer since 1924.
NOTE: some special characters may not display properly (any characters within {} are an attempt to place the proper accent above a character)
Reference: 20060613/MPCPages.arcLast Updated: 2008-05-22

Alternate Designations
 1993 FP73 = 1987 RS6 = 1994 PW30 
Ephemeris | Orbit Diagram | Orbital Elements | Physical Parameters | Discovery Circumstances ]
ABOUT SSD CREDITS/AWARDS PRIVACY/COPYRIGHT GLOSSARY LINKS
FirstGov 2013-Jun-18 05:00 UT
(server date/time)  
NASA Home Page
Site Manager:   Donald K. Yeomans
Webmaster  Alan B. Chamberlin